Location: Unspecified
(41.7080°N, 0.0000°E)
Time: 10:44:23
(UTC+00:00)

CZ-6A DEB - Visible Passes

Search period start: 04 April 2026 00:00
Search period end: 14 April 2026 00:00
Orbit: 777 x 817 km, 89.0° (Epoch: 22 March)

Date Brightness Start Highest point End Pass type
(mag) Time Alt. Az. Time Alt. Az. Time Alt. Az.
4 Apr ? 04:40:55 10° ESE 04:44:24 18° ENE 04:47:52 10° NNE visible
5 Apr ? 04:15:47 10° E 04:17:03 11° ENE 04:18:20 10° ENE visible
6 Apr ? 19:21:42 10° WNW 19:22:25 10° WNW 19:23:07 10° WNW visible
7 Apr ? 04:57:11 10° SE 05:01:51 34° E 05:06:31 10° NNE visible
8 Apr ? 04:30:31 10° SE 04:34:22 21° ENE 04:38:14 10° NNE visible
9 Apr ? 04:04:41 10° E 04:06:59 13° ENE 04:09:17 10° NE visible
11 Apr ? 04:46:58 10° SSE 04:51:48 40° E 04:56:39 10° NNE visible
12 Apr ? 04:20:07 10° SE 04:24:17 25° ENE 04:28:28 10° NNE visible
13 Apr ? 03:53:53 10° ESE 03:56:50 15° ENE 03:59:47 10° NE visible
